TimeEST,TemperatureF,Dew PointF,Humidity,Sea Level PressureIn,VisibilityMPH,Wind Direction,Wind SpeedMPH,Gust SpeedMPH,PrecipitationIn,Events,Conditions,WindDirDegrees,DateUTC
12:55 AM,33.1,28.0,82,29.92,6.0,SSE,12.7,-,N/A,,Haze,150,2013-01-09 05:55:00
1:55 AM,33.1,26.1,75,29.88,6.0,SE,11.5,-,N/A,,Haze,140,2013-01-09 06:55:00
2:55 AM,33.1,26.1,75,29.83,6.0,SE,8.1,-,N/A,,Haze,130,2013-01-09 07:55:00
3:55 AM,34.0,26.1,73,29.81,8.0,SE,6.9,-,N/A,,Overcast,130,2013-01-09 08:55:00
4:39 AM,34.0,26.1,73,29.76,8.0,SE,6.9,-,N/A,,Overcast,130,2013-01-09 09:39:00
4:55 AM,34.0,26.1,73,29.77,8.0,SE,8.1,-,N/A,,Overcast,130,2013-01-09 09:55:00
5:55 AM,35.1,26.1,70,29.75,9.0,South,8.1,-,N/A,,Overcast,180,2013-01-09 10:55:00
6:55 AM,35.1,27.0,72,29.75,9.0,South,4.6,-,N/A,,Overcast,190,2013-01-09 11:55:00
7:55 AM,36.0,28.9,76,29.75,8.0,SW,5.8,-,N/A,,Overcast,220,2013-01-09 12:55:00
8:50 AM,37.4,28.4,70,29.73,7.0,WSW,9.2,-,N/A,,Overcast,250,2013-01-09 13:50:00
8:55 AM,37.0,28.0,70,29.75,7.0,WSW,8.1,-,N/A,,Overcast,240,2013-01-09 13:55:00
9:55 AM,37.0,28.0,70,29.77,8.0,WSW,12.7,20.7,N/A,,Overcast,240,2013-01-09 14:55:00
10:55 AM,37.9,28.0,68,29.77,9.0,WSW,16.1,23.0,N/A,,Mostly Cloudy,250,2013-01-09 15:55:00
11:55 AM,37.0,26.1,65,29.78,10.0,WSW,13.8,24.2,N/A,,Overcast,250,2013-01-09 16:55:00
12:55 PM,37.0,25.0,62,29.78,10.0,WSW,17.3,24.2,N/A,,Overcast,250,2013-01-09 17:55:00
1:50 PM,35.6,26.6,70,29.81,5.0,West,19.6,29.9,0.00,Snow,Light Snow,270,2013-01-09 18:50:00
1:55 PM,35.1,26.1,70,29.83,4.0,West,21.9,39.1,0.00,Snow,Light Snow,280,2013-01-09 18:55:00
2:06 PM,34.0,26.1,73,29.81,6.0,West,20.7,35.7,0.00,Snow,Light Snow,280,2013-01-09 19:06:00
2:55 PM,35.1,24.1,64,29.87,10.0,West,20.7,35.7,0.00,,Overcast,280,2013-01-09 19:55:00
3:27 PM,35.1,24.1,64,29.88,10.0,West,25.3,34.5,N/A,,Overcast,280,2013-01-09 20:27:00
3:50 PM,33.8,24.8,70,29.90,1.5,West,25.3,40.3,0.00,Snow,Light Snow,280,2013-01-09 20:50:00
3:55 PM,33.1,27.0,78,29.93,1.0,West,23.0,40.3,0.00,Snow,Light Snow,280,2013-01-09 20:55:00
4:02 PM,33.1,27.0,78,29.91,3.0,West,19.6,39.1,0.00,Snow,Light Snow,280,2013-01-09 21:02:00
4:13 PM,33.1,26.1,75,29.92,3.0,West,20.7,29.9,0.00,Snow,Light Snow,280,2013-01-09 21:13:00
4:17 PM,33.1,26.1,75,29.93,1.8,West,20.7,34.5,0.00,Snow,Light Snow,280,2013-01-09 21:17:00
4:30 PM,33.1,25.0,72,29.93,3.0,West,23.0,34.5,0.00,Snow,Light Snow,280,2013-01-09 21:30:00
4:37 PM,34.0,23.0,64,29.94,5.0,West,25.3,35.7,0.00,Snow,Light Snow,280,2013-01-09 21:37:00
4:55 PM,34.0,21.0,59,29.99,9.0,West,24.2,36.8,0.00,Rain,Light Rain,280,2013-01-09 21:55:00
5:55 PM,34.0,23.0,64,30.05,6.0,West,23.0,35.7,0.00,Snow,Light Snow,280,2013-01-09 22:55:00
6:55 PM,34.0,23.0,64,30.13,8.0,West,18.4,31.1,0.00,Snow,Light Snow,280,2013-01-09 23:55:00
7:55 PM,35.1,23.0,61,30.17,10.0,WNW,18.4,32.2,0.00,Snow,Light Snow,290,2013-01-10 00:55:00
8:55 PM,36.0,25.0,64,30.22,10.0,WNW,15.0,25.3,0.00,,Overcast,290,2013-01-10 01:55:00
9:18 PM,36.0,26.1,67,30.22,10.0,WNW,9.2,19.6,0.00,,Overcast,290,2013-01-10 02:18:00
9:55 PM,36.0,25.0,64,30.26,10.0,WNW,18.4,28.8,0.00,,Overcast,300,2013-01-10 02:55:00
10:22 PM,36.0,24.1,62,30.26,10.0,West,17.3,26.5,N/A,,Overcast,280,2013-01-10 03:22:00
10:55 PM,36.0,25.0,64,30.29,10.0,WNW,16.1,24.2,N/A,,Overcast,300,2013-01-10 03:55:00
11:55 PM,36.0,26.1,67,30.34,10.0,West,16.1,25.3,N/A,,Overcast,270,2013-01-10 04:55:00